Regional Weather Roundup
Issued by NWS Cleveland, OH

Home | Current Version | Previous Version | Graphics & Text | Print | Product List | Glossary On
Versions: 1 2 3 4 5 6 7 8 9 10 11 12 13 14 15 16 17 18 19 20 21 22 23 24 25 26 27 28 29 30 31 32 33 34 35 36 37 38 39 40 41 42 43 44 45 46 47 48 49 50
000
ASUS41 KCLE 301012
RWRCLE
OHIO REGIONAL WEATHER ROUNDUP
NATIONAL WEATHER SERVICE WILMINGTON, OH
600 AM EDT FRI SEP 30 2016

NOTE: "FAIR" INDICATES FEW OR NO CLOUDS BELOW 12,000 FEET WITH NO
SIGNIFICANT WEATHER AND/OR OBSTRUCTIONS TO VISIBILITY.

OHZ001>008-015>018-024>027-034-035-043-044-301100-
   NORTHWEST OHIO

CITY           SKY/WX    TMP DP  RH WIND       PRES   REMARKS
DEFIANCE       CLOUDY    62  58  86 VRB7      30.08F
FINDLAY        CLOUDY    61  57  87 NE12      30.06F
TOLEDO EXPRESS CLOUDY    61  60  97 E9        30.11S
TOLEDO EXEC    CLOUDY    63  60  90 E9        30.12S
LIMA           CLOUDY    59  59 100 NE12      30.06S
$$

OHZ009>014-019>023-028>033-038-089-301100-
   NORTHEAST OHIO

CITY           SKY/WX    TMP DP  RH WIND       PRES   REMARKS
CLE-HOPKINS    CLOUDY    61  56  83 E13       30.14S
CLE-LAKEFRONT  CLOUDY    61  57  87 E8        30.12F
CUY CO. ARPT   NOT AVBL
LORAIN-ELYRIA  NOT AVBL
ASHTABULA      LGT RAIN  57  57 100 E14       30.21F
AKRON-CANTON   LGT RAIN  58  55  90 E17       30.12S
WOOSTER        CLOUDY    59  57  93 E15G23    30.11S
MANSFIELD      CLOUDY    59  58  96 E14       30.08S
YOUNGSTOWN     LGT RAIN  57  54  89 E17G24    30.17S
$$

OHZ042-051>053-060>062-070>072-077>081-301100-
  SOUTHWEST OHIO

CITY           SKY/WX    TMP DP  RH WIND       PRES   REMARKS
CINC-COVINGTON CLOUDY    58  56  93 CALM      30.03R
CINC-LUNKEN    CLOUDY    56  56 100 NE6       30.05S
HAMILTON       CLOUDY    58  56  93 CALM      30.05S
DAYTON         CLOUDY    58  57  97 CALM      30.04F FOG
WRIGHT-PAT AFB CLOUDY    59  59 100 W3        30.02F
DAYTON GENERAL RAIN      57  56  96 SW3       30.03S FOG
WILMINGTON     CLOUDY    56  56 100 SW8       30.03R FOG
$$

OHZ036-037-039>041-045>050-054>059-063>069-073>076-082>088-301100-
  CENTRAL AND SOUTHEAST OHIO

CITY           SKY/WX    TMP DP  RH WIND       PRES   REMARKS
COLUMBUS       LGT RAIN  62  61  96 E8        30.03S
OSU AIRPORT    CLOUDY    62  60  93 E12       30.02F
BOLTON FIELD   CLOUDY    61  60  99 E9        30.02R
RICKENBACK AFB CLOUDY    60  60 100 E9        30.01R
NEWARK         LGT RAIN  61  59  93 VRB6      30.04F
MARION         CLOUDY    60  57  89 E6        30.08R
LANCASTER      CLOUDY    62  60  93 E7        30.03F
ZANESVILLE     CLOUDY    61  59  93 E9        30.05S
NEW PHILLY     MOCLDY    60  58  92 E10G20    30.11R
$$




USA.gov is the U.S. government's official web portal to all federal, state and local government web resources and services.